[[{"header":{"parameterUnit":"m.s-1","parameterCategory":1,"la1":30.2991,"la2":30.254,"lo1":-89.0895,"lo2":-89.0444,"dy":0.0017,"dx":0.0017,"nx":28,"ny":28,"refTime":"2024-04-08T09:00:00:Z","depth":0,"parameterNumber":2,"parameterNumberName":"U-component_of_WINDS"},"data":[0,0,0,0,0,0,0,0,0,0,0,0,0,0,0,0,0,0,0,0,0,0,0,0,0,0,0,0,0,0,0,0,0,0,0,0,0,0,0,0,0,0,0,0,0,0,0,0,0,0,0,0,0,0,0,0,0,0,-3.4357,-3.4358,0,-3.4459,-3.446,-3.4461,-3.4454,-3.4452,-3.4451,-3.4449,-3.4552,-3.4556,-3.4561,0,0,0,0,0,0,0,0,0,0,0,0,0,-3.4156,-3.4159,-3.4357,-3.4359,-3.436,-3.4459,-3.446,-3.4461,-3.4454,-3.4452,-3.445,-3.4448,-3.4551,-3.4556,-3.4561,0,0,0,0,0,0,0,0,0,0,0,0,0,-3.4249,-3.4161,-3.4357,-3.4368,-3.437,-3.4458,-3.446,-3.4462,-3.4454,-3.4452,-3.445,-3.4448,-3.4549,-3.4555,-3.4562,-3.4646,0,0,-3.4581,-3.4583,0,0,0,0,0,0,0,0,-3.4243,-3.4256,-3.4365,-3.4367,-3.437,-3.4441,-3.4427,-3.4523,-3.4455,-3.4422,-3.4449,-3.4446,-3.4517,-3.4526,-3.455,-3.465,-3.4655,-3.4581,-3.4585,-3.4588,-3.4589,0,0,0,0,0,0,0,-3.4237,-3.4252,-3.4397,-3.4367,-3.437,-3.4367,-3.4378,-3.4445,-3.4481,-3.4425,-3.4425,-3.4437,-3.4518,-3.4544,-3.4552,-3.4656,-3.4581,-3.4587,-3.459,-3.4593,-3.4829,-3.4832,0,0,0,0,0,0,-3.4228,-3.4246,-3.4394,-3.44,-3.43,-3.4373,-3.4385,-3.4421,-3.448,-3.4487,-3.4439,-3.4436,-3.4534,-3.4545,-3.4556,-3.4657,-3.4588,-3.4593,-3.4597,-3.4827,-3.483,-3.4833,0,0,0,0,0,0,-3.4224,-3.4241,-3.439,-3.4323,-3.4342,-3.4379,-3.4419,-3.4424,-3.445,-3.4491,-3.4497,-3.4458,-3.4533,-3.4547,-3.4623,-3.466,-3.4596,-3.4602,-3.4824,-3.4828,-3.4831,-3.486,0,0,0,0,0,0,-3.4218,-3.424,-3.4273,-3.4324,-3.4346,-3.4456,-3.4421,-3.4427,-3.4461,-3.4458,-3.4511,-3.4518,-3.4532,-3.4614,-3.4629,-3.4668,-3.4607,-3.4821,-3.4826,-3.483,-3.4856,-3.4864,-3.4872,0,0,0,0,0,-3.4211,-3.4277,-3.4274,-3.4292,-3.4387,-3.4458,-3.447,-3.4486,-3.4464,-3.4496,-3.4523,-3.4516,-3.4654,-3.4622,-3.4639,-3.468,-3.4818,-3.4824,-3.483,-3.4852,-3.4863,-3.4871,0,0,0,0,0,0,-3.4228,-3.4284,-3.4281,-3.4366,-3.4407,-3.4457,-3.4498,-3.4497,-3.4545,-3.4541,-3.4558,-3.457,-3.4646,-3.4671,-3.4634,-3.4764,-3.4733,-3.4743,-3.4744,-3.4755,-3.4762,-3.4754,-3.4612,0,0,0,0,0,-3.4242,-3.4295,-3.4341,-3.4411,-3.4432,-3.4462,-3.4493,-3.4502,-3.4545,-3.4562,-3.4594,-3.4637,-3.4689,-3.4724,-3.4775,-3.486,-3.4871,-3.4897,-3.4905,-3.4911,-3.4918,-3.4964,-3.4975,-3.4852,-3.4851,-3.4851,0,0,-3.4271,-3.4308,-3.434,-3.4415,-3.4448,-3.4502,-3.4476,-3.4535,-3.4575,-3.4571,-3.4644,-3.467,-3.4718,-3.4798,-3.4836,-3.4821,-3.4955,-3.4918,-3.4923,-3.4927,-3.4971,-3.4983,-3.4993,-3.4855,-3.4855,-3.4854,0,0,-3.435,-3.4384,-3.4445,-3.4479,-3.453,-3.4549,-3.4564,-3.4614,-3.463,-3.4704,-3.4702,-3.475,-3.4841,-3.4875,-3.4904,-3.4996,-3.4991,-3.5012,-3.5053,-3.5097,-3.5107,-3.5115,-3.5147,-3.5158,-3.502,-3.502,-3.502,0,-3.4379,-3.4461,-3.4477,-3.4536,-3.4569,-3.4568,-3.463,-3.4662,-3.4726,-3.4749,-3.4732,-3.4845,-3.4878,-3.4966,-3.4988,-3.5013,-3.5029,-3.5006,-3.5104,-3.5113,-3.5121,-3.5151,-3.5163,-3.5022,-3.5022,-3.5022,-3.5022,0,-3.4493,-3.455,-3.4594,-3.4656,-3.4693,-3.4754,-3.4778,-3.4815,-3.482,-3.4841,-3.4916,-3.4955,-3.5013,-3.5035,-3.5041,-3.5124,-3.5113,-3.51,-3.507,-3.5135,-3.5163,-3.5175,-3.5025,-3.5024,-3.5024,-3.5023,0,0,-3.4586,-3.4656,-3.4672,-3.4699,-3.4755,-3.4799,-3.4859,-3.4916,-3.4945,-3.499,-3.504,-3.5117,-3.5105,-3.5138,-3.5148,-3.5187,-3.5256,-3.517,-3.5171,-3.5183,-3.5347,-3.5355,-3.5368,-3.5254,-3.5256,-3.5258,-3.5343,0,-3.467,-3.4775,-3.4792,-3.4885,-3.4937,-3.4937,-3.4989,-3.5028,-3.5049,-3.5096,-3.512,-3.5173,-3.5155,-3.5174,-3.5213,-3.5239,-3.5289,-3.5234,-3.5299,-3.5301,-3.5285,-3.5383,-3.5392,-3.547,-3.5354,-3.5356,-3.5357,0,-3.4781,-3.4829,-3.4927,-3.4974,-3.4996,-3.5043,-3.5096,-3.5141,-3.5185,-3.5198,-3.5235,-3.524,-3.5301,-3.5269,-3.5353,-3.5315,-3.5343,-3.536,-3.5363,-3.5369,-3.5332,-3.5389,-3.5496,-3.5507,-3.5375,-3.5374,-3.5373,0,-3.4837,-3.4925,-3.4995,-3.5019,-3.5076,-3.5109,-3.5134,-3.5176,-3.5209,-3.5256,-3.5277,-3.533,-3.5359,-3.54,-3.5419,-3.5394,-3.5501,-3.5471,-3.5512,-3.5511,-3.5533,-3.5531,-3.5643,-3.5554,-3.5554,-3.5554,-3.5554,0,-3.4928,-3.4987,-3.502,-3.5063,-3.5129,-3.5147,-3.5213,-3.5237,-3.5275,-3.5322,-3.5326,-3.537,-3.5393,-3.544,-3.5456,-3.5522,-3.5535,-3.5546,-3.5549,-3.5545,-3.5543,-3.5562,-3.5556,-3.5557,-3.5556,-3.5556,-3.5555,0,-3.5,-3.5025,-3.5101,-3.5149,-3.5162,-3.5209,-3.525,-3.5291,-3.5312,-3.5372,-3.5387,-3.542,-3.5475,-3.5499,-3.5567,-3.5578,-3.5653,-3.5653,-3.5638,-3.5638,-3.5677,-3.5673,-3.5804,-3.5822,-3.5722,-3.5723,-3.5724,0,-3.5056,-3.5101,-3.5155,-3.5186,-3.5213,-3.5264,-3.5297,-3.5317,-3.5352,-3.5405,-3.544,-3.5495,-3.5541,-3.563,-3.5659,-3.5712,-3.5712,-3.5754,-3.5719,-3.5713,-3.571,-3.5706,-3.571,-3.576,-3.5761,-3.5762,-3.5762,0,-3.5151,-3.5161,-3.5209,-3.5262,-3.5301,-3.5344,-3.5385,-3.541,-3.5436,-3.5475,-3.5532,-3.5567,-3.5637,-3.5692,-3.5745,-3.5771,-3.5771,-3.5773,-3.5785,-3.578,-3.5769,-3.5774,-3.5653,-3.577,-3.5769,-3.5769,-3.5768,-3.5768,-3.5216,-3.5256,-3.5299,-3.5352,-3.5385,-3.5424,-3.5464,-3.549,-3.5538,-3.5596,-3.5605,-3.5665,-3.5708,-3.578,-3.5808,-3.5855,-3.5844,-3.5862,-3.5866,-3.587,-3.5871,-3.5763,-3.5865,-3.5865,-3.5865,-3.5865,-3.5865,0,-3.531,-3.5338,-3.5387,-3.5444,-3.5485,-3.5482,-3.5527,-3.5562,-3.5615,-3.5655,-3.57,-3.5764,-3.5817,-3.5851,-3.5905,-3.5936,-3.5937,-3.5949,-3.5946,-3.5951,-3.5879,-3.5862,-3.5947,-3.5947,-3.5947,-3.5947,-3.5947,-3.5947,-3.5364,-3.5431,-3.5446,-3.5529,-3.5556,-3.5615,-3.5641,-3.5676,-3.5708,-3.578,-3.5824,-3.5845,-3.5883,-3.5938,-3.5987,-3.5995,-3.6014,-3.6026,-3.6034,-3.5965,-3.5957,-3.5948,-3.5933,-3.6031,-3.6031,-3.6102,-3.6103,-3.6103]},{"header":{"parameterUnit":"m.s-1","parameterCategory":1,"la1":30.2991,"la2":30.254,"lo1":-89.0895,"lo2":-89.0444,"dy":0.0017,"dx":0.0017,"nx":28,"ny":28,"refTime":"2024-04-08T09:00:00:Z","depth":0,"parameterNumber":3,"parameterNumberName":"V-component_of_WINDS"},"data":[0,0,0,0,0,0,0,0,0,0,0,0,0,0,0,0,0,0,0,0,0,0,0,0,0,0,0,0,0,0,0,0,0,0,0,0,0,0,0,0,0,0,0,0,0,0,0,0,0,0,0,0,0,0,0,0,0,0,2.2314,2.2315,0,2.2397,2.2398,2.2399,2.2384,2.2382,2.2381,2.238,2.2462,2.2465,2.2469,0,0,0,0,0,0,0,0,0,0,0,0,0,2.2141,2.2144,2.2314,2.2315,2.2316,2.2397,2.2398,2.2399,2.2384,2.2382,2.2381,2.2379,2.2461,2.2465,2.2469,0,0,0,0,0,0,0,0,0,0,0,0,0,2.2219,2.2145,2.2314,2.2318,2.232,2.2397,2.2398,2.2399,2.2385,2.2382,2.238,2.2378,2.2459,2.2464,2.247,2.2546,0,0,2.2486,2.2488,0,0,0,0,0,0,0,0,2.2215,2.2225,2.2317,2.2318,2.232,2.2378,2.2367,2.2449,2.2385,2.236,2.238,2.2377,2.2435,2.2443,2.2463,2.255,2.2554,2.2486,2.249,2.2492,2.2493,0,0,0,0,0,0,0,2.2209,2.2222,2.2347,2.2318,2.232,2.2316,2.2324,2.2382,2.2409,2.2362,2.2361,2.2371,2.2436,2.2458,2.2465,2.2555,2.2486,2.2491,2.2494,2.2496,2.2711,2.2713,0,0,0,0,0,0,2.2203,2.2217,2.2344,2.2349,2.2261,2.2321,2.233,2.2361,2.2408,2.2413,2.2373,2.237,2.245,2.2458,2.2468,2.2562,2.2492,2.2497,2.25,2.2708,2.2711,2.2714,0,0,0,0,0,0,2.2199,2.2214,2.2341,2.2283,2.2299,2.2326,2.2361,2.2364,2.2386,2.2417,2.2421,2.2391,2.2448,2.246,2.2527,2.2564,2.2499,2.2504,2.2705,2.2709,2.2713,2.275,0,0,0,0,0,0,2.2194,2.2213,2.2243,2.2284,2.2302,2.24,2.2363,2.2367,2.2396,2.2393,2.2434,2.2439,2.2448,2.252,2.2533,2.257,2.2508,2.2702,2.2707,2.2712,2.2745,2.2754,2.2762,0,0,0,0,0,2.2188,2.2249,2.2244,2.226,2.234,2.2402,2.2412,2.2422,2.2399,2.2429,2.2449,2.2438,2.2558,2.2527,2.2541,2.2581,2.27,2.2706,2.2711,2.2742,2.2753,2.2762,0,0,0,0,0,0,2.221,2.2254,2.225,2.2326,2.2361,2.2399,2.2438,2.2433,2.2474,2.2469,2.2478,2.2488,2.2556,2.2575,2.2539,2.2659,2.2626,2.2635,2.2644,2.2655,2.2663,2.2657,2.2513,0,0,0,0,0,2.2224,2.2271,2.2307,2.2371,2.2389,2.241,2.2437,2.2442,2.2478,2.2492,2.2516,2.2551,2.2597,2.2626,2.267,2.2748,2.2757,2.2783,2.2791,2.2798,2.2805,2.2849,2.2861,2.2733,2.2733,2.2732,0,0,2.2252,2.2283,2.2312,2.2376,2.2403,2.2452,2.2422,2.2475,2.2511,2.2499,2.2565,2.2585,2.2624,2.2697,2.2731,2.2715,2.2843,2.2805,2.281,2.2814,2.2856,2.2869,2.2879,2.2736,2.2736,2.2735,0,0,2.233,2.2357,2.2414,2.2443,2.2485,2.2499,2.2513,2.2553,2.2566,2.2633,2.2626,2.2668,2.2746,2.2775,2.28,2.289,2.2882,2.2904,2.2947,2.299,2.3,2.3009,2.3042,2.3054,2.2911,2.2911,2.2911,0,2.236,2.2434,2.2444,2.2498,2.2527,2.252,2.2578,2.2604,2.2658,2.2678,2.266,2.2759,2.2785,2.2866,2.2888,2.2908,2.2924,2.2899,2.2998,2.3007,2.3016,2.3048,2.306,2.2914,2.2913,2.2913,2.2913,0,2.247,2.2521,2.2562,2.2616,2.2649,2.2705,2.2722,2.2755,2.2756,2.2773,2.2841,2.2872,2.2922,2.2941,2.2943,2.3023,2.3012,2.2996,2.2963,2.303,2.3061,2.3073,2.2917,2.2916,2.2916,2.2915,0,0,2.2563,2.2623,2.2638,2.2663,2.271,2.275,2.2805,2.2855,2.2884,2.2921,2.2968,2.3035,2.3021,2.3049,2.3054,2.3091,2.3162,2.3071,2.3072,2.3087,2.3254,2.3266,2.328,2.3157,2.3159,2.3161,2.3251,0,2.2646,2.2745,2.2756,2.2844,2.2892,2.2887,2.2935,2.2969,2.2986,2.3028,2.3046,2.3094,2.3071,2.3089,2.3125,2.3146,2.3196,2.3139,2.3201,2.3203,2.3192,2.3296,2.3309,2.3393,2.3263,2.3265,2.3266,0,2.2756,2.2799,2.2892,2.2934,2.2954,2.2998,2.3046,2.3087,2.3125,2.3134,2.3167,2.3167,2.3224,2.3189,2.3268,2.3229,2.3255,2.3269,2.3272,2.3279,2.3239,2.3307,2.3419,2.3432,2.3284,2.3283,2.3282,0,2.2817,2.2897,2.2964,2.2985,2.3035,2.3066,2.3088,2.3124,2.3154,2.3196,2.3216,2.3263,2.3289,2.3325,2.3338,2.3311,2.3417,2.3382,2.3427,2.3427,2.345,2.3448,2.3569,2.3465,2.3464,2.3464,2.3464,0,2.2909,2.2967,2.2992,2.3033,2.3098,2.3109,2.3173,2.3193,2.3226,2.3271,2.3268,2.331,2.3324,2.3368,2.3378,2.3443,2.3454,2.3464,2.3466,2.3465,2.3464,2.3483,2.3478,2.3467,2.3467,2.3466,2.3466,0,2.2988,2.3007,2.308,2.3121,2.3133,2.3179,2.3215,2.3254,2.3271,2.3328,2.3342,2.3367,2.3419,2.3436,2.3498,2.3505,2.3581,2.3577,2.3569,2.3569,2.3613,2.361,2.3751,2.3771,2.3652,2.3653,2.3654,0,2.3046,2.3091,2.3138,2.3168,2.3192,2.3241,2.3272,2.3285,2.3318,2.3366,2.34,2.3452,2.3494,2.3578,2.3602,2.365,2.3648,2.3694,2.3655,2.3653,2.365,2.3648,2.3653,2.3702,2.3703,2.3704,2.3705,0,2.3148,2.3155,2.3201,2.3251,2.3289,2.3328,2.3366,2.3391,2.341,2.3446,2.3501,2.3534,2.3599,2.3651,2.37,2.3722,2.3717,2.3717,2.373,2.373,2.3724,2.373,2.359,2.3714,2.3713,2.3713,2.3712,2.3712,2.3219,2.3259,2.3299,2.335,2.3381,2.3417,2.3457,2.3479,2.3524,2.3579,2.3584,2.3643,2.368,2.3746,2.3771,2.3817,2.3804,2.3822,2.3827,2.3832,2.3836,2.3716,2.3826,2.3825,2.3825,2.3825,2.3825,0,2.3322,2.3348,2.3395,2.3449,2.349,2.3482,2.3524,2.3559,2.3611,2.3647,2.369,2.3752,2.3803,2.3831,2.3882,2.3913,2.3913,2.3926,2.3925,2.393,2.3844,2.3829,2.3926,2.3926,2.3926,2.3926,2.3926,2.3926,2.338,2.3448,2.3461,2.3544,2.3569,2.3628,2.3652,2.3686,2.3715,2.3786,2.3828,2.3847,2.388,2.3933,2.398,2.3986,2.4006,2.4021,2.4027,2.3946,2.3936,2.3926,2.3912,2.4025,2.4025,2.4109,2.411,2.4111]}]]